Weather History for Los Angeles Downtown, CA

Change the Weather History Date:

Monday, August 12, 2013

  Actual Average Record
Temperature  
Mean Temperature 71 °F 74 °F  
Max Temperature 79 °F 84 °F 104 °F (1994)
Min Temperature 62 °F 64 °F 52 °F (1894)
Degree Days  
Heating Degree Days 0 0  
Month to date heating degree days 0 0  
Since 1 June heating degree days 0 8  
Since 1 July heating degree days 0 0  
Cooling Degree Days 6 9  
Month to date cooling degree days 57 108  
Year to date cooling degree days 621 655  
Since 1 June cooling degree days 463 501  
Growing Degree Days 20 (Base 50)    
Moisture  
Dew Point 58 °F    
Average Humidity 69    
Maximum Humidity 90    
Minimum Humidity 47    
Precipitation  
Precipitation 0.00 in 0.00 in 0.32 in (1972)
Month to date precipitation 0.00 0.01  
Year to date precipitation 2.72 10.63  
Since 1 July precipitation 0.09 0.02  
Sea Level Pressure  
Sea Level Pressure 29.93 in    
Wind  
Wind Speed 1 mph (West)    
Max Wind Speed 8 mph    
Max Gust Speed 15 mph    
Visibility 8 miles    
Events      
T = Trace of Precipitation, MM = Missing Value Source: NWS Daily Summary

Daily Weather History Graph

Daily Weather History Graph

Search for Another Location

Airport:

Trip Planner

Search our weather history database for the weather conditions in past years. The results will help you decide how hot, cold, wet, or windy it might be!

Date:

Astronomy

Aug. 12, 2013 Rise Set
Actual Time 6:12 AM PDT 7:42 PM PDT
Civil Twilight 5:46 AM PDT 8:09 PM PDT
Nautical Twilight 5:14 AM PDT 8:41 PM PDT
Astronomical Twilight 4:40 AM PDT 9:14 PM PDT
Moon 11:49 AM PDT (8/12) 10:59 PM PDT (8/12)
Length of Visible Light 14h 23m
Length of Day
13h 30m
Waxing Crescent, 32% of the Moon is Illuminated
Aug 12
Waxing Crescent
Aug 14
First Quarter
Aug 20
Full
Aug 28
Last Quarter
Sep 5
New

Hourly Weather History & Observations

Time (PDT) Temp. Dew Point Humidity Pressure Visibility Wind Dir Wind Speed Gust Speed Precip Events Conditions
12:47 AM 63.0 °F 57.9 °F 84% 29.93 in 9.0 mi Calm Calm - N/A   Overcast
1:47 AM 63.0 °F 57.9 °F 84% 29.92 in 7.0 mi Calm Calm - N/A   Mostly Cloudy
2:47 AM 63.0 °F 57.9 °F 84% 29.92 in 7.0 mi Calm Calm - N/A   Overcast
3:47 AM 62.1 °F 59.0 °F 90% 29.92 in 5.0 mi Calm Calm - N/A   Overcast
4:47 AM 62.1 °F 57.9 °F 86% 29.92 in 7.0 mi Calm Calm - N/A   Overcast
4:57 AM 62.6 °F 59.0 °F 88% 29.93 in 7.0 mi Calm Calm - N/A   Overcast
5:47 AM 63.0 °F 57.9 °F 84% 29.94 in 7.0 mi Calm Calm - N/A   Overcast
6:47 AM 64.0 °F 57.9 °F 80% 29.95 in 5.0 mi Calm Calm - N/A   Haze
7:47 AM 64.0 °F 57.0 °F 78% 29.95 in 5.0 mi Variable 3.5 mph - N/A   Haze
8:43 AM 66.2 °F 57.2 °F 73% 29.97 in 6.0 mi Calm Calm - N/A   Haze
8:47 AM 66.9 °F 57.0 °F 70% 29.96 in 6.0 mi Calm Calm - N/A   Haze
9:13 AM 66.2 °F 57.2 °F 73% 29.97 in 6.0 mi Calm Calm - N/A   Haze
9:47 AM 70.0 °F 57.9 °F 65% 29.96 in 7.0 mi Calm Calm - N/A   Clear
10:47 AM 73.9 °F 57.0 °F 55% 29.96 in 8.0 mi Calm Calm - N/A   Clear
11:47 AM 77.0 °F 55.9 °F 48% 29.95 in 10.0 mi Calm Calm - N/A   Clear
12:47 PM 78.1 °F 57.9 °F 50% 29.93 in 10.0 mi Variable 5.8 mph - N/A   Clear
1:47 PM 77.0 °F 59.0 °F 54% 29.92 in 9.0 mi Variable 3.5 mph - N/A   Clear
2:47 PM 75.9 °F 57.9 °F 54% 29.91 in 9.0 mi Variable 3.5 mph - N/A   Clear
3:47 PM 73.9 °F 57.9 °F 57% 29.91 in 9.0 mi Variable 4.6 mph - N/A   Clear
4:47 PM 73.0 °F 59.0 °F 61% 29.89 in 10.0 mi Variable 3.5 mph - N/A   Clear
5:47 PM 73.0 °F 59.0 °F 61% 29.89 in 10.0 mi Calm Calm - N/A   Clear
6:47 PM 69.1 °F 59.0 °F 70% 29.90 in 10.0 mi WSW 3.5 mph - N/A   Clear
7:17 PM 64.4 °F 57.2 °F 77% 29.91 in 10.0 mi West 4.6 mph - N/A   Partly Cloudy
7:30 PM 64.4 °F 59.0 °F 83% 29.91 in 10.0 mi Variable 4.6 mph - N/A   Mostly Cloudy
7:47 PM 64.0 °F 59.0 °F 84% 29.91 in 10.0 mi Variable 3.5 mph - N/A   Overcast
8:47 PM 63.0 °F 57.9 °F 84% 29.93 in 10.0 mi Variable 3.5 mph - N/A   Overcast
9:47 PM 63.0 °F 57.9 °F 84% 29.94 in 10.0 mi Calm Calm - N/A   Overcast
10:47 PM 63.0 °F 57.9 °F 84% 29.94 in 10.0 mi Calm Calm - N/A   Mostly Cloudy
11:47 PM 63.0 °F 57.9 °F 84% 29.94 in 8.0 mi Calm Calm - N/A   Overcast